Terug naar catalogus

ONEWEB-0522

ActiefCommunicatiePO
NORAD 54140·PAYLOAD·🇬🇧 United Kingdom

Gelanceerd Oct 22, 2022 vanaf Satish Dhawan Space Centre

Loading…

Volgende Passages (komende 24 uur)

TLE

VersSource: CelesTrak SupGP

Epoch: Sep 15, 2026, 03:27 UTC

1 54140C 22138AD  26258.14391620 -.00002581  00000+0 -64536-2 0  2580
2 54140  87.9121 287.0435 0002067  90.2213 302.6559 13.19732213    18

Volg ONEWEB-0522 in realtime met AllMySat

Download on the App Store